Regional Weather Roundup
Issued by NWS Little Rock, AR

Home | Current Version | Previous Version | Graphics & Text | Print | Product List | Glossary On
Versions: 1 2 3 4 5 6 7 8 9 10 11 12 13 14 15 16 17 18 19 20 21 22 23 24 25 26 27 28 29 30 31 32
000
ASUS44 KLZK 171005
RWRLZK

WEATHER ROUNDUP FOR ARKANSAS
NATIONAL WEATHER SERVICE LITTLE ROCK AR
400 AM CST WED JAN 17 2018

NOTE: "FAIR" INDICATES FEW OR NO CLOUDS BELOW 12,000 FEET WITH NO
SIGNIFICANT WEATHER AND/OR OBSTRUCTIONS TO VISIBILITY.

ARZ001-003-010-029-171100-
NORTHWEST ARKANSAS

CITY           SKY/WX    TMP DP  RH WIND       PRES   REMARKS
FAYETTEVILLE   CLOUDY     0  -2  91 CALM      30.68S
FORT SMITH     CLOUDY     8   1  73 W3        30.76S
HARRISON       CLOUDY     3  -2  79 W6        30.65S WCI  -8
BENTONVILLE    CLOUDY     1  -2  87 CALM      30.68F
ROGERS         CLOUDY     0  -3  87 CALM      30.66F
SILOAM SPGS    CLOUDY     0  -3  87 E3        30.68F
HIGHFILL       CLOUDY     1  -3  83 CALM      30.66F
$$

ARZ004-005-016-171100-
NORTH CENTRAL ARKANSAS

CITY           SKY/WX    TMP DP  RH WIND       PRES   REMARKS
BATESVILLE     FAIR       6   1  80 NW6       30.74S WCI  -4
FLIPPIN        CLOUDY     0  -4  83 SW3       30.73S
MTN HOME       CLOUDY     0  -2  91 CALM      30.68F
$$

ARZ040-041-171100-
WEST CENTRAL ARKANSAS

CITY           SKY/WX    TMP DP  RH WIND       PRES   REMARKS
MENA           PTCLDY     7   5  92 CALM      30.67F
MOUNT IDA      PTCLDY     7   2  80 NW3       30.69S
$$

ARZ009-017-025-026-028-171100-
NORTHEAST ARKANSAS

CITY           SKY/WX    TMP DP  RH WIND       PRES   REMARKS
JONESBORO      FAIR       9   3  77 NW7       30.72S WCI  -2
NEWPORT        FAIR       7   2  80 NW12      30.75S WCI  -8
WALNUT RIDGE   FAIR       6   1  80 NW8       30.74S WCI  -7
BLYTHEVILLE    FAIR       1  -4  79 N8        30.71S WCI -13
$$

ARZ022-023-033-042-044-171100-
CENTRAL ARKANSAS

CITY           SKY/WX    TMP DP  RH WIND       PRES   REMARKS
LITTLE ROCK    FAIR       8   2  76 N9        30.76F WCI  -5
N LITTLE ROCK    N/A      7   1  76 NW6       30.79F WCI  -3
JACKSONVILLE   FAIR       8   1  73 NW3       30.73F
SEARCY         FAIR       8   2  76 NW7       30.75F WCI  -3
HOT SPRINGS    FAIR      11   3  70 CALM      30.72S
RUSSELLVILLE   CLEAR      9   1  70 NW5       30.74F WCI   1
CLINTON        FAIR       7   1  78 CALM      30.74S
$$

ARZ036-171100-
EAST ARKANSAS

CITY           SKY/WX    TMP DP  RH WIND       PRES   REMARKS
WEST MEMPHIS   FAIR       6   4  91 NW3       30.72R
$$

ARZ050-053-066-070-073-171100-
SOUTHWEST ARKANSAS

CITY           SKY/WX    TMP DP  RH WIND       PRES   REMARKS
ARKADELPHIA    FAIR       9   4  80 NE5       30.77S WCI   1
CAMDEN         FAIR       7   0  72 CALM      30.76S
TEXARKANA      FAIR       8   3  80 CALM      30.74S
EL DORADO      FAIR       8   5  87 N5        30.74S WCI   0
DE QUEEN       CLOUDY     8   5  87 CALM      30.74S
$$

ARZ056-057-069-171100-
SOUTHEAST ARKANSAS

CITY           SKY/WX    TMP DP  RH WIND       PRES   REMARKS
PINE BLUFF     FAIR       8   1  73 N9        30.75S WCI  -5
STUTTGART      FAIR       8   2  76 N13       30.75S WCI  -8
MONTICELLO     FAIR       8   3  80 NW3       30.73S

$$






USA.gov is the U.S. government's official web portal to all federal, state and local government web resources and services.